When you browse on this site, cookies collect data to enhance your experience and personalize the content and advertising you see.
Visit our Privacy Policy to learn more. By continuing to use the site, you agree to this use of cookies and data.
  • en France
  • Liste des pays
  • À 7 jours
  • Température de l'eau
  • Carte satellitaire
  • Carte météo
  • Widgets météo
  • user-avatar
    Se connecter

    Météo par heure à Cochabamba

    Ce jour, 25 Mai, Samedi

    Heure Température Précipitation Vent Pression Humidité
    00:00 +10°C° 0 mm 1 m/s 554 mmHg 70%
    01:00 +10°C° 0 mm 1 m/s 553 mmHg 69%
    02:00 +10°C° 0 mm 1 m/s 553 mmHg 67%
    03:00 +10°C° 0 mm 1 m/s 553 mmHg 63%
    04:00 +10°C° 0 mm 1 m/s 553 mmHg 60%
    05:00 +9°C° 0 mm 2 m/s 552 mmHg 56%
    06:00 +10°C° 0 mm 2 m/s 553 mmHg 50%
    07:00 +13°C° 0 mm 2 m/s 555 mmHg 44%
    08:00 +14°C° 0 mm 2 m/s 556 mmHg 38%
    09:00 +16°C° 0 mm 2 m/s 556 mmHg 33%
    10:00 +18°C° 0 mm 2 m/s 557 mmHg 29%
    11:00 +22°C° 0 mm 1 m/s 558 mmHg 24%
    12:00 +21°C° 0 mm 2 m/s 558 mmHg 25%
    13:00 +23°C° 0 mm 2 m/s 557 mmHg 26%
    14:00 +24°C° 0 mm 3 m/s 557 mmHg 27%
    15:00 +22°C° 0.1 mm 3 m/s 556 mmHg 33%
    16:00 +21°C° 0.1 mm 3 m/s 556 mmHg 38%
    17:00 +20°C° 0.1 mm 4 m/s 555 mmHg 43%
    18:00 +18°C° 0 mm 3 m/s 554 mmHg 51%
    19:00 +16°C° 0 mm 3 m/s 554 mmHg 58%
    20:00 +13°C° 0 mm 3 m/s 553 mmHg 66%
    21:00 +14°C° 0 mm 2 m/s 553 mmHg 64%
    22:00 +13°C° 0 mm 2 m/s 553 mmHg 63%
    23:00 +13°C° 0 mm 2 m/s 553 mmHg 61%

    Demain, 26 Mai, Dimanche

    Heure Température Précipitation Vent Pression Humidité
    00:00 +13°C° 0 mm 2 m/s 553 mmHg 59%
    01:00 +12°C° 0 mm 2 m/s 553 mmHg 56%
    02:00 +12°C° 0 mm 2 m/s 552 mmHg 54%
    03:00 +12°C° 0 mm 2 m/s 552 mmHg 51%
    04:00 +12°C° 0 mm 2 m/s 552 mmHg 47%
    05:00 +10°C° 0 mm 2 m/s 552 mmHg 44%
    06:00 +13°C° 0 mm 2 m/s 553 mmHg 40%
    07:00 +14°C° 0 mm 2 m/s 554 mmHg 37%
    08:00 +16°C° 0 mm 2 m/s 555 mmHg 33%
    09:00 +18°C° 0 mm 2 m/s 556 mmHg 30%
    10:00 +20°C° 0 mm 2 m/s 557 mmHg 27%
    11:00 +23°C° 0 mm 1 m/s 558 mmHg 24%
    12:00 +23°C° 0.2 mm 2 m/s 557 mmHg 26%
    13:00 +24°C° 0.2 mm 3 m/s 557 mmHg 28%
    14:00 +24°C° 0.2 mm 3 m/s 556 mmHg 31%
    15:00 +22°C° 1 mm 3 m/s 556 mmHg 35%
    16:00 +22°C° 1 mm 4 m/s 555 mmHg 40%
    17:00 +21°C° 1 mm 4 m/s 554 mmHg 45%
    18:00 +19°C° 1 mm 4 m/s 554 mmHg 53%
    19:00 +17°C° 1 mm 4 m/s 553 mmHg 61%
    20:00 +14°C° 1 mm 3 m/s 553 mmHg 70%
    21:00 +14°C° 0.2 mm 3 m/s 553 mmHg 70%
    22:00 +13°C° 0.2 mm 3 m/s 553 mmHg 70%
    23:00 +14°C° 0.2 mm 2 m/s 553 mmHg 70%

    Après-demain, 27 Mai, Lundi

    Heure Température Précipitation Vent Pression Humidité
    00:00 +13°C° 0 mm 2 m/s 553 mmHg 69%
    01:00 +13°C° 0 mm 2 m/s 552 mmHg 67%
    02:00 +13°C° 0 mm 2 m/s 552 mmHg 65%
    03:00 +12°C° 0 mm 2 m/s 552 mmHg 64%
    04:00 +12°C° 0 mm 2 m/s 551 mmHg 62%
    05:00 +12°C° 0 mm 2 m/s 551 mmHg 61%
    06:00 +13°C° 0 mm 2 m/s 552 mmHg 56%
    07:00 +14°C° 0 mm 2 m/s 554 mmHg 51%
    08:00 +16°C° 0 mm 2 m/s 555 mmHg 46%
    09:00 +18°C° 0.2 mm 2 m/s 556 mmHg 43%
    10:00 +20°C° 0.2 mm 1 m/s 556 mmHg 39%
    11:00 +22°C° 0.2 mm 1 m/s 557 mmHg 35%
    12:00 +23°C° 0.5 mm 2 m/s 557 mmHg 35%
    13:00 +23°C° 0.5 mm 2 m/s 556 mmHg 35%
    14:00 +24°C° 0.5 mm 3 m/s 556 mmHg 35%
    15:00 +22°C° 0.7 mm 3 m/s 555 mmHg 39%
    16:00 +22°C° 0.7 mm 4 m/s 555 mmHg 43%
    17:00 +21°C° 0.7 mm 4 m/s 554 mmHg 47%
    18:00 +19°C° 0.1 mm 4 m/s 554 mmHg 56%
    19:00 +18°C° 0.1 mm 4 m/s 554 mmHg 65%
    20:00 +16°C° 0.1 mm 3 m/s 554 mmHg 74%
    21:00 +14°C° 0.1 mm 3 m/s 554 mmHg 76%
    22:00 +15°C° 0.1 mm 2 m/s 554 mmHg 77%
    23:00 +14°C° 0.1 mm 2 m/s 554 mmHg 78%

    28 Mai, Mardi

    Heure Température Précipitation Vent Pression Humidité
    00:00 +14°C° 0.1 mm 2 m/s 553 mmHg 75%
    01:00 +13°C° 0.1 mm 2 m/s 553 mmHg 73%
    02:00 +12°C° 0.1 mm 2 m/s 552 mmHg 70%
    03:00 +12°C° 0 mm 2 m/s 552 mmHg 66%
    04:00 +12°C° 0 mm 2 m/s 552 mmHg 62%
    05:00 +10°C° 0 mm 2 m/s 552 mmHg 57%
    06:00 +13°C° 0 mm 2 m/s 553 mmHg 53%
    07:00 +14°C° 0 mm 2 m/s 554 mmHg 48%
    08:00 +15°C° 0 mm 2 m/s 555 mmHg 43%
    09:00 +17°C° 0 mm 2 m/s 556 mmHg 38%
    10:00 +20°C° 0 mm 1 m/s 557 mmHg 34%
    11:00 +22°C° 0 mm 1 m/s 558 mmHg 29%
    12:00 +23°C° 0 mm 2 m/s 557 mmHg 31%
    13:00 +24°C° 0 mm 2 m/s 557 mmHg 32%
    14:00 +24°C° 0 mm 3 m/s 556 mmHg 34%
    15:00 +22°C° 0.1 mm 3 m/s 556 mmHg 39%
    16:00 +22°C° 0.1 mm 3 m/s 555 mmHg 43%
    17:00 +21°C° 0.1 mm 4 m/s 555 mmHg 47%
    18:00 +19°C° 0.1 mm 3 m/s 554 mmHg 56%
    19:00 +17°C° 0.1 mm 3 m/s 554 mmHg 65%
    20:00 +16°C° 0.1 mm 3 m/s 554 mmHg 74%
    21:00 +14°C° 0 mm 3 m/s 554 mmHg 75%
    22:00 +15°C° 0 mm 2 m/s 554 mmHg 76%
    23:00 +14°C° 0 mm 2 m/s 554 mmHg 78%

    29 Mai, Mercredi

    Heure Température Précipitation Vent Pression Humidité
    00:00 +14°C° 0 mm 2 m/s 553 mmHg 76%
    01:00 +13°C° 0 mm 2 m/s 553 mmHg 73%
    02:00 +13°C° 0 mm 2 m/s 553 mmHg 71%
    03:00 +13°C° 0 mm 2 m/s 553 mmHg 70%
    04:00 +12°C° 0 mm 2 m/s 553 mmHg 68%
    05:00 +12°C° 0 mm 2 m/s 552 mmHg 66%
    06:00 +13°C° 0 mm 2 m/s 553 mmHg 61%
    07:00 +15°C° 0 mm 2 m/s 555 mmHg 56%
    08:00 +16°C° 0 mm 2 m/s 556 mmHg 50%
    09:00 +18°C° 0 mm 2 m/s 556 mmHg 46%
    10:00 +20°C° 0 mm 2 m/s 557 mmHg 41%
    11:00 +23°C° 0 mm 2 m/s 558 mmHg 36%
    12:00 +22°C° 0.1 mm 3 m/s 557 mmHg 38%
    13:00 +22°C° 0.1 mm 3 m/s 557 mmHg 40%
    14:00 +23°C° 0.1 mm 4 m/s 556 mmHg 42%
    15:00 +22°C° 0.1 mm 4 m/s 555 mmHg 44%
    16:00 +21°C° 0.1 mm 4 m/s 555 mmHg 47%
    17:00 +21°C° 0.1 mm 4 m/s 554 mmHg 50%
    18:00 +19°C° 0 mm 4 m/s 554 mmHg 58%
    19:00 +18°C° 0 mm 3 m/s 554 mmHg 65%
    20:00 +16°C° 0 mm 2 m/s 554 mmHg 73%
    21:00 +16°C° 0 mm 2 m/s 554 mmHg 71%
    22:00 +15°C° 0 mm 2 m/s 554 mmHg 69%
    23:00 +15°C° 0 mm 2 m/s 554 mmHg 67%

    30 Mai, Jeudi

    Heure Température Précipitation Vent Pression Humidité
    00:00 +15°C° 0 mm 2 m/s 553 mmHg 65%
    01:00 +14°C° 0 mm 2 m/s 553 mmHg 62%
    02:00 +14°C° 0 mm 2 m/s 552 mmHg 60%
    03:00 +14°C° 0 mm 2 m/s 552 mmHg 58%
    04:00 +13°C° 0 mm 2 m/s 552 mmHg 56%
    05:00 +13°C° 0 mm 2 m/s 552 mmHg 54%
    06:00 +15°C° 0 mm 2 m/s 553 mmHg 50%
    07:00 +16°C° 0 mm 2 m/s 555 mmHg 47%
    08:00 +17°C° 0 mm 2 m/s 556 mmHg 43%
    09:00 +19°C° 0 mm 2 m/s 556 mmHg 39%
    10:00 +22°C° 0 mm 1 m/s 557 mmHg 36%
    11:00 +23°C° 0 mm 1 m/s 558 mmHg 32%
    12:00 +24°C° 0.7 mm 2 m/s 557 mmHg 32%
    13:00 +25°C° 0.7 mm 2 m/s 557 mmHg 33%
    14:00 +25°C° 0.7 mm 2 m/s 556 mmHg 33%
    15:00 +25°C° 0.9 mm 3 m/s 556 mmHg 37%
    16:00 +24°C° 0.9 mm 3 m/s 556 mmHg 41%
    17:00 +22°C° 0.9 mm 4 m/s 555 mmHg 45%
    18:00 +20°C° 0.4 mm 3 m/s 555 mmHg 54%
    19:00 +18°C° 0.4 mm 3 m/s 554 mmHg 63%
    20:00 +16°C° 0.4 mm 3 m/s 553 mmHg 72%
    21:00 +16°C° 0 mm 2 m/s 553 mmHg 71%
    22:00 +15°C° 0 mm 2 m/s 553 mmHg 70%
    23:00 +14°C° 0 mm 2 m/s 553 mmHg 69%
    Voir plus